Meteo pe oră la Bolshoe Ovsyanikovo

Astăzi, 18 Mai, Marţi

Timp Temperatura Precipitaţii Vânt Presiune Umiditate
00:00 +16°C° 0 mm 3 m/s 746 mmHg 94%
01:00 +16°C° 0 mm 3 m/s 746 mmHg 95%
02:00 +16°C° 0 mm 3 m/s 746 mmHg 96%
03:00 +16°C° 0 mm 3 m/s 746 mmHg 95%
04:00 +16°C° 0 mm 3 m/s 746 mmHg 94%
05:00 +16°C° 0 mm 3 m/s 746 mmHg 94%
06:00 +18°C° 0 mm 4 m/s 746 mmHg 85%
07:00 +20°C° 0 mm 4 m/s 746 mmHg 77%
08:00 +22°C° 0 mm 4 m/s 746 mmHg 69%
09:00 +25°C° 0 mm 5 m/s 746 mmHg 60%
10:00 +26°C° 0 mm 5 m/s 746 mmHg 51%
11:00 +28°C° 0 mm 6 m/s 746 mmHg 42%
12:00 +29°C° 0 mm 6 m/s 746 mmHg 42%
13:00 +29°C° 0 mm 6 m/s 746 mmHg 41%
14:00 +30°C° 0 mm 6 m/s 745 mmHg 40%
15:00 +29°C° 0 mm 6 m/s 745 mmHg 44%
16:00 +28°C° 0 mm 5 m/s 745 mmHg 47%
17:00 +27°C° 0 mm 5 m/s 745 mmHg 51%
18:00 +25°C° 0 mm 5 m/s 745 mmHg 57%
19:00 +22°C° 0 mm 4 m/s 745 mmHg 63%
20:00 +20°C° 0 mm 4 m/s 745 mmHg 69%
21:00 +20°C° 0 mm 4 m/s 745 mmHg 71%
22:00 +20°C° 0 mm 4 m/s 745 mmHg 73%
23:00 +19°C° 0 mm 4 m/s 745 mmHg 74%

Mâine, 19 Mai, Miercuri

Timp Temperatura Precipitaţii Vânt Presiune Umiditate
00:00 +19°C° 0 mm 4 m/s 745 mmHg 77%
01:00 +18°C° 0 mm 3 m/s 745 mmHg 80%
02:00 +17°C° 0 mm 3 m/s 745 mmHg 83%
03:00 +17°C° 0 mm 3 m/s 745 mmHg 83%
04:00 +17°C° 0 mm 3 m/s 745 mmHg 82%
05:00 +17°C° 0 mm 3 m/s 745 mmHg 82%
06:00 +19°C° 0 mm 4 m/s 745 mmHg 74%
07:00 +21°C° 0 mm 5 m/s 745 mmHg 66%
08:00 +23°C° 0 mm 5 m/s 745 mmHg 58%
09:00 +25°C° 0 mm 5 m/s 744 mmHg 53%
10:00 +27°C° 0 mm 6 m/s 744 mmHg 48%
11:00 +28°C° 0 mm 6 m/s 744 mmHg 43%
12:00 +28°C° 0 mm 6 m/s 744 mmHg 43%
13:00 +29°C° 0 mm 6 m/s 744 mmHg 43%
14:00 +29°C° 0 mm 6 m/s 744 mmHg 44%
15:00 +28°C° 0 mm 6 m/s 744 mmHg 47%
16:00 +28°C° 0 mm 5 m/s 744 mmHg 50%
17:00 +27°C° 0 mm 5 m/s 743 mmHg 53%
18:00 +23°C° 0.5 mm 4 m/s 744 mmHg 63%
19:00 +21°C° 0.5 mm 3 m/s 744 mmHg 72%
20:00 +19°C° 0.5 mm 2 m/s 744 mmHg 82%
21:00 +18°C° 0.5 mm 2 m/s 744 mmHg 86%
22:00 +18°C° 0.5 mm 1 m/s 744 mmHg 90%
23:00 +16°C° 0.5 mm 1 m/s 744 mmHg 94%

Poimâine, 20 Mai, Joi

Timp Temperatura Precipitaţii Vânt Presiune Umiditate
00:00 +16°C° 0.5 mm 1 m/s 744 mmHg 94%
01:00 +16°C° 0.5 mm 1 m/s 744 mmHg 95%
02:00 +16°C° 0.5 mm 2 m/s 744 mmHg 96%
03:00 +17°C° 0.1 mm 2 m/s 744 mmHg 95%
04:00 +17°C° 0.1 mm 2 m/s 744 mmHg 95%
05:00 +17°C° 0.1 mm 3 m/s 744 mmHg 94%
06:00 +18°C° 0 mm 3 m/s 744 mmHg 90%
07:00 +19°C° 0 mm 4 m/s 744 mmHg 86%
08:00 +20°C° 0 mm 4 m/s 744 mmHg 82%
09:00 +22°C° 0 mm 4 m/s 743 mmHg 73%
10:00 +23°C° 0 mm 5 m/s 743 mmHg 64%
11:00 +26°C° 0 mm 5 m/s 743 mmHg 56%
12:00 +25°C° 0.5 mm 5 m/s 743 mmHg 60%
13:00 +24°C° 0.5 mm 6 m/s 743 mmHg 64%
14:00 +23°C° 0.5 mm 6 m/s 742 mmHg 69%
15:00 +22°C° 0.7 mm 5 m/s 742 mmHg 73%
16:00 +21°C° 0.7 mm 5 m/s 742 mmHg 77%
17:00 +20°C° 0.7 mm 5 m/s 742 mmHg 81%
18:00 +19°C° 0.1 mm 4 m/s 742 mmHg 84%
19:00 +18°C° 0.1 mm 3 m/s 742 mmHg 86%
20:00 +16°C° 0.1 mm 3 m/s 742 mmHg 89%
21:00 +16°C° 0 mm 3 m/s 742 mmHg 90%
22:00 +14°C° 0 mm 3 m/s 742 mmHg 92%
23:00 +14°C° 0 mm 3 m/s 741 mmHg 94%

21 Mai, Vineri

Timp Temperatura Precipitaţii Vânt Presiune Umiditate
00:00 +13°C° 0 mm 3 m/s 741 mmHg 95%
01:00 +13°C° 0 mm 3 m/s 741 mmHg 96%
02:00 +13°C° 0 mm 2 m/s 741 mmHg 97%
03:00 +13°C° 0 mm 2 m/s 741 mmHg 96%
04:00 +14°C° 0 mm 2 m/s 741 mmHg 95%
05:00 +14°C° 0 mm 2 m/s 741 mmHg 94%
06:00 +15°C° 0.1 mm 2 m/s 741 mmHg 89%
07:00 +16°C° 0.1 mm 2 m/s 740 mmHg 83%
08:00 +17°C° 0.1 mm 3 m/s 740 mmHg 78%
09:00 +16°C° 0.8 mm 3 m/s 740 mmHg 81%
10:00 +16°C° 0.8 mm 3 m/s 740 mmHg 83%
11:00 +16°C° 0.8 mm 3 m/s 740 mmHg 85%
12:00 +14°C° 0.5 mm 3 m/s 741 mmHg 87%
13:00 +13°C° 0.5 mm 3 m/s 741 mmHg 89%
14:00 +12°C° 0.5 mm 3 m/s 741 mmHg 91%
15:00 +12°C° 0.2 mm 3 m/s 742 mmHg 89%
16:00 +12°C° 0.2 mm 3 m/s 742 mmHg 88%
17:00 +13°C° 0.2 mm 4 m/s 742 mmHg 87%
18:00 +12°C° 0.1 mm 4 m/s 743 mmHg 88%
19:00 +11°C° 0.1 mm 4 m/s 744 mmHg 89%
20:00 +10°C° 0.1 mm 4 m/s 745 mmHg 90%
21:00 +10°C° 0 mm 4 m/s 746 mmHg 91%
22:00 +8°C° 0 mm 4 m/s 746 mmHg 91%
23:00 +8°C° 0 mm 3 m/s 747 mmHg 91%

22 Mai, Sâmbătă

Timp Temperatura Precipitaţii Vânt Presiune Umiditate
00:00 +8°C° 0 mm 3 m/s 747 mmHg 91%
01:00 +8°C° 0 mm 3 m/s 748 mmHg 92%
02:00 +8°C° 0 mm 3 m/s 748 mmHg 92%
03:00 +8°C° 0 mm 3 m/s 748 mmHg 90%
04:00 +8°C° 0 mm 3 m/s 749 mmHg 88%
05:00 +8°C° 0 mm 3 m/s 749 mmHg 86%
06:00 +10°C° 0 mm 3 m/s 749 mmHg 75%
07:00 +12°C° 0 mm 4 m/s 750 mmHg 64%
08:00 +13°C° 0 mm 4 m/s 750 mmHg 53%
09:00 +14°C° 0 mm 4 m/s 750 mmHg 49%
10:00 +15°C° 0 mm 4 m/s 750 mmHg 45%
11:00 +17°C° 0 mm 4 m/s 751 mmHg 40%
12:00 +18°C° 0 mm 4 m/s 751 mmHg 39%
13:00 +18°C° 0 mm 4 m/s 751 mmHg 38%
14:00 +19°C° 0 mm 4 m/s 751 mmHg 37%
15:00 +19°C° 0 mm 3 m/s 751 mmHg 39%
16:00 +18°C° 0 mm 3 m/s 751 mmHg 42%
17:00 +18°C° 0 mm 2 m/s 751 mmHg 45%
18:00 +16°C° 0 mm 2 m/s 751 mmHg 52%
19:00 +14°C° 0 mm 2 m/s 751 mmHg 60%
20:00 +12°C° 0 mm 2 m/s 751 mmHg 68%
21:00 +12°C° 0 mm 2 m/s 751 mmHg 69%
22:00 +10°C° 0 mm 2 m/s 751 mmHg 70%
23:00 +10°C° 0 mm 1 m/s 751 mmHg 71%

23 Mai, Duminică

Timp Temperatura Precipitaţii Vânt Presiune Umiditate
00:00 +9°C° 0 mm 2 m/s 751 mmHg 73%
01:00 +9°C° 0 mm 2 m/s 751 mmHg 75%
02:00 +8°C° 0 mm 2 m/s 751 mmHg 77%
03:00 +9°C° 0 mm 2 m/s 751 mmHg 75%
04:00 +10°C° 0 mm 2 m/s 751 mmHg 74%
05:00 +10°C° 0 mm 2 m/s 751 mmHg 72%
06:00 +13°C° 0 mm 2 m/s 750 mmHg 68%
07:00 +14°C° 0 mm 3 m/s 750 mmHg 63%
08:00 +17°C° 0 mm 3 m/s 750 mmHg 59%
09:00 +18°C° 0 mm 3 m/s 749 mmHg 55%
10:00 +19°C° 0 mm 3 m/s 749 mmHg 51%
11:00 +20°C° 0 mm 3 m/s 748 mmHg 48%
12:00 +19°C° 0 mm 3 m/s 747 mmHg 52%
13:00 +19°C° 0 mm 3 m/s 747 mmHg 56%
14:00 +18°C° 0 mm 3 m/s 746 mmHg 60%
15:00 +17°C° 0.3 mm 2 m/s 745 mmHg 67%
16:00 +16°C° 0.3 mm 2 m/s 745 mmHg 74%
17:00 +15°C° 0.3 mm 1 m/s 744 mmHg 82%
18:00 +15°C° 3.9 mm 1 m/s 743 mmHg 87%
19:00 +14°C° 3.9 mm 1 m/s 742 mmHg 93%
20:00 +14°C° 3.9 mm 1 m/s 742 mmHg 99%
21:00 +13°C° 0.6 mm 1 m/s 741 mmHg 98%
22:00 +13°C° 0.6 mm 2 m/s 741 mmHg 98%
23:00 +13°C° 0.6 mm 2 m/s 741 mmHg 98%
Arată mai mult

Formular de consimțământ

Meteoprog și furnizorii noștri de servicii pot stoca și accesa date personale, precum cookies, identificatori de dispozitiv sau alte tehnologii similare pe dispozitivul dumneavoastră și procesa astfel de date pentru a personaliza conținutul și reclamele, dar și pentru a oferi caracteristici de social media și pentru a analiza traficul.

  • Stocarea și/sau accesarea informațiilor pe dispozitivul dumneavoastră

    Cookies, identificatori de dispozitiv sau alte informații pot fi stocate sau accesate pe dispozitiv în scopurile indicate mai sus.

  • Reclame și conținut personalizat, evaluarea reclamelor și a conținutului, informații despre audiențe și dezvoltarea produselor

    Reclamele și conținutul pot fi personalizate pe baza unui profil. Pot fi adăugate date suplimentare pentru a personaliza mai bine reclamele și conținutul. Performanța reclamelor și conținutului poate fi măsurată. Pot fi obținute informații despre utilizatorii care au văzut reclamele și conținutul. Aceste date pot fi utilizate pentru a dezvolta sau îmbunătăți experiența utilizatorilor, sistemele și software-ul.

Dând clic pe ‘Sunt de acord’, permiteți utilizarea cookie-urilor menționate, a identificatorilor de dispozitiv, balizelor web sau altor tehnologii similare. Setările pot fi modificate din browser-ul dispozitivului dumneavoastră.

În anumite scopuri, interesele legitime pot prima asupra consimțământului. Puteți citi mai multe informații în acest sens în Politica privind Confidențialitatea Datelor și Cookie.